Zurück zum Katalog

CZ-4C DEB

AktivSSO
NORAD 42671·DEBRIS·🇨🇳 China

Gestartet Nov 26, 2015 von Taiyuan Satellite Launch Center

Loading…

Nächste Überflüge (nächste 24 Stunden)

TLE

AktuellSource: Space-Track

Epoche: Sep 14, 2026, 09:51 UTC

1 42671U 15069D   26257.41097879  .00003287  00000-0  41581-3 0  9990
2 42671  97.7751 115.5501 0112236  82.2685 279.1253 14.78103025569675

Verfolge CZ-4C DEB in Echtzeit mit AllMySat

Download on the App Store